TimeCDT,TemperatureF,Dew PointF,Humidity,Sea Level PressureIn,VisibilityMPH,Wind Direction,Wind SpeedMPH,Gust SpeedMPH,PrecipitationIn,Events,Conditions,WindDirDegrees,DateUTC
12:15 AM,79.0,68.9,71,29.92,10.0,South,9.2,17.3,N/A,,Clear,170,2013-06-23 05:15:00
12:35 AM,78.6,68.9,72,29.91,10.0,SSE,8.1,-,N/A,,Clear,160,2013-06-23 05:35:00
12:55 AM,78.4,68.9,72,29.91,10.0,SSE,9.2,16.1,N/A,,Clear,160,2013-06-23 05:55:00
1:15 AM,77.9,69.1,74,29.91,10.0,SSE,10.4,-,N/A,,Clear,160,2013-06-23 06:15:00
1:35 AM,77.4,69.4,76,29.90,10.0,SSE,9.2,-,N/A,,Clear,160,2013-06-23 06:35:00
1:55 AM,77.0,69.6,78,29.89,10.0,SSE,8.1,-,N/A,,Clear,150,2013-06-23 06:55:00
2:15 AM,76.5,69.4,79,29.90,10.0,SSE,6.9,-,N/A,,Clear,150,2013-06-23 07:15:00
2:35 AM,76.1,69.1,79,29.91,10.0,SSE,6.9,-,N/A,,Clear,150,2013-06-23 07:35:00
2:55 AM,75.2,69.1,81,29.92,10.0,SSE,5.8,-,N/A,,Clear,160,2013-06-23 07:55:00
3:15 AM,74.7,68.9,82,29.91,10.0,SSE,6.9,-,N/A,,Clear,150,2013-06-23 08:15:00
3:35 AM,74.3,68.9,83,29.92,10.0,South,8.1,-,N/A,,Clear,170,2013-06-23 08:35:00
3:55 AM,73.8,68.5,84,29.91,10.0,South,6.9,-,N/A,,Clear,170,2013-06-23 08:55:00
4:15 AM,73.4,68.2,84,29.90,10.0,SSE,6.9,-,N/A,,Clear,150,2013-06-23 09:15:00
4:35 AM,73.0,68.0,84,29.90,10.0,SSE,6.9,-,N/A,,Clear,160,2013-06-23 09:35:00
4:55 AM,72.9,67.8,84,29.90,10.0,SSE,8.1,-,N/A,,Clear,150,2013-06-23 09:55:00
5:15 AM,72.1,67.6,86,29.90,10.0,SSE,8.1,-,N/A,,Clear,150,2013-06-23 10:15:00
5:35 AM,71.6,67.8,88,29.89,10.0,SSE,8.1,-,N/A,,Clear,150,2013-06-23 10:35:00
5:55 AM,71.6,68.0,88,29.89,10.0,SSE,8.1,-,N/A,,Clear,150,2013-06-23 10:55:00
6:15 AM,71.4,68.0,89,29.88,10.0,SSE,10.4,-,N/A,,Clear,150,2013-06-23 11:15:00
6:35 AM,72.1,67.6,86,29.89,10.0,SSE,8.1,-,N/A,,Clear,150,2013-06-23 11:35:00
6:55 AM,73.0,67.5,83,29.90,10.0,South,8.1,-,N/A,,Clear,170,2013-06-23 11:55:00
7:15 AM,74.3,67.8,80,29.90,10.0,South,9.2,-,N/A,,Clear,170,2013-06-23 12:15:00
7:35 AM,75.7,68.0,77,29.90,10.0,South,9.2,-,N/A,,Clear,180,2013-06-23 12:35:00
7:55 AM,76.6,68.2,75,29.89,10.0,South,12.7,17.3,N/A,,Clear,180,2013-06-23 12:55:00
8:15 AM,78.1,68.4,72,29.90,10.0,South,8.1,12.7,N/A,,Clear,180,2013-06-23 13:15:00
8:35 AM,78.6,68.4,71,29.91,10.0,South,10.4,17.3,N/A,,Clear,190,2013-06-23 13:35:00
8:55 AM,77.0,68.4,75,29.94,10.0,SW,8.1,-,N/A,,Mostly Cloudy,220,2013-06-23 13:55:00
9:15 AM,77.0,68.2,74,29.94,10.0,SSW,6.9,-,N/A,,Overcast,210,2013-06-23 14:15:00
9:35 AM,70.7,61.7,73,30.00,10.0,WNW,23.0,33.4,N/A,Rain,Light Rain,300,2013-06-23 14:35:00
9:55 AM,64.4,61.3,90,30.02,2.0,NNW,16.1,28.8,0.15,Rain,Heavy Rain,330,2013-06-23 14:55:00
10:15 AM,64.0,61.9,93,30.03,3.0,NNW,13.8,21.9,0.06,Rain,Heavy Rain,340,2013-06-23 15:15:00
10:35 AM,63.9,61.7,93,30.02,5.0,North,8.1,-,0.13,Rain,Heavy Rain,350,2013-06-23 15:35:00
10:55 AM,63.9,62.1,94,30.02,10.0,ESE,8.1,-,0.14,Rain,Light Rain,120,2013-06-23 15:55:00
11:15 AM,64.4,62.6,94,29.98,10.0,East,6.9,-,0.01,Rain,Rain,100,2013-06-23 16:15:00
11:35 AM,64.9,63.5,95,29.95,7.0,ESE,9.2,-,0.03,Rain,Rain,120,2013-06-23 16:35:00
11:55 AM,65.1,63.3,94,29.86,10.0,ESE,19.6,29.9,0.04,Rain,Light Rain,120,2013-06-23 16:55:00
12:15 PM,65.5,63.1,92,29.93,10.0,SE,13.8,21.9,N/A,,Scattered Clouds,130,2013-06-23 17:15:00
12:35 PM,66.6,63.5,90,29.91,10.0,ESE,13.8,-,N/A,,Clear,120,2013-06-23 17:35:00
12:55 PM,68.9,63.3,82,29.89,10.0,ESE,11.5,16.1,N/A,,Clear,120,2013-06-23 17:55:00
1:15 PM,71.2,62.6,74,29.90,10.0,SE,12.7,17.3,N/A,,Clear,140,2013-06-23 18:15:00
1:35 PM,72.7,62.8,71,29.88,10.0,SE,10.4,16.1,N/A,,Clear,130,2013-06-23 18:35:00
1:55 PM,73.9,63.9,71,29.88,10.0,SE,11.5,-,N/A,,Clear,140,2013-06-23 18:55:00
2:15 PM,75.7,64.2,67,29.88,10.0,SSE,10.4,-,N/A,,Clear,150,2013-06-23 19:15:00
2:35 PM,76.8,64.4,65,29.89,10.0,SSE,8.1,-,N/A,,Clear,160,2013-06-23 19:35:00
2:55 PM,76.1,65.3,69,29.91,10.0,SSW,6.9,-,N/A,,Clear,210,2013-06-23 19:55:00
3:15 PM,76.3,66.2,71,29.91,10.0,SW,5.8,-,N/A,,Clear,220,2013-06-23 20:15:00
3:35 PM,76.5,65.7,69,29.91,10.0,West,9.2,-,N/A,,Clear,260,2013-06-23 20:35:00
3:55 PM,76.1,65.1,69,29.92,10.0,SW,4.6,-,N/A,,Clear,230,2013-06-23 20:55:00
4:15 PM,76.1,65.8,70,29.92,10.0,WSW,5.8,-,N/A,,Clear,250,2013-06-23 21:15:00
4:35 PM,76.1,66.4,72,29.92,10.0,SW,4.6,-,N/A,,Clear,230,2013-06-23 21:35:00
4:55 PM,76.1,67.3,74,29.92,10.0,SW,3.5,-,N/A,,Clear,230,2013-06-23 21:55:00
5:15 PM,75.7,66.9,74,29.93,10.0,SW,5.8,-,N/A,,Clear,220,2013-06-23 22:15:00
5:35 PM,75.2,65.1,71,29.93,10.0,SSW,6.9,-,N/A,,Clear,210,2013-06-23 22:35:00
5:55 PM,75.2,64.4,69,29.91,10.0,South,5.8,-,N/A,,Clear,180,2013-06-23 22:55:00
6:15 PM,75.2,63.9,68,29.91,10.0,South,6.9,-,N/A,,Clear,190,2013-06-23 23:15:00
6:35 PM,74.8,64.2,69,29.90,10.0,South,4.6,-,N/A,,Clear,190,2013-06-23 23:35:00
6:55 PM,74.8,65.7,73,29.90,10.0,South,5.8,-,N/A,,Clear,170,2013-06-23 23:55:00
7:15 PM,73.6,65.3,75,29.91,10.0,South,4.6,-,N/A,,Clear,190,2013-06-24 00:15:00
7:35 PM,73.4,65.7,77,29.92,10.0,SSE,4.6,-,N/A,,Clear,160,2013-06-24 00:35:00
7:55 PM,73.2,66.2,79,29.93,10.0,SE,3.5,-,N/A,,Clear,130,2013-06-24 00:55:00
8:15 PM,72.1,66.2,82,29.93,10.0,ESE,3.5,-,N/A,,Scattered Clouds,120,2013-06-24 01:15:00
8:35 PM,71.8,66.2,83,29.94,10.0,SE,5.8,-,N/A,,Scattered Clouds,140,2013-06-24 01:35:00
8:55 PM,71.6,66.2,83,29.94,10.0,SE,4.6,-,N/A,,Scattered Clouds,140,2013-06-24 01:55:00
9:15 PM,70.9,66.6,86,29.94,10.0,SE,5.8,-,N/A,,Scattered Clouds,130,2013-06-24 02:15:00
9:35 PM,70.7,66.6,87,29.94,10.0,SE,5.8,-,N/A,,Scattered Clouds,140,2013-06-24 02:35:00
9:55 PM,70.3,67.1,89,29.95,10.0,SE,8.1,-,N/A,,Scattered Clouds,130,2013-06-24 02:55:00
10:15 PM,70.3,67.1,89,29.96,10.0,ESE,5.8,-,N/A,,Scattered Clouds,120,2013-06-24 03:15:00
10:35 PM,70.3,67.1,89,29.96,10.0,SSE,3.5,-,N/A,Rain,Light Rain,160,2013-06-24 03:35:00
10:55 PM,70.3,67.3,90,29.95,10.0,ESE,4.6,-,N/A,,Scattered Clouds,120,2013-06-24 03:55:00
11:15 PM,70.0,67.1,91,29.96,10.0,SE,4.6,-,N/A,,Scattered Clouds,130,2013-06-24 04:15:00
11:35 PM,69.6,67.1,92,29.94,10.0,SE,6.9,-,N/A,Rain,Light Rain,140,2013-06-24 04:35:00
11:55 PM,68.9,66.2,91,29.96,7.0,SE,4.6,-,N/A,,Drizzle,130,2013-06-24 04:55:00